Terug naar catalogus

SL-16 DEB

ActiefLEO
NORAD 22409·DEBRIS·🇷🇺 Russia

Gelanceerd Dec 25, 1992 vanaf Baikonur Cosmodrome

Loading…

Volgende Passages (komende 24 uur)

TLE

VersSource: Space-Track

Epoch: Sep 14, 2026, 04:12 UTC

1 22409U 92093DA  26257.17516806  .00000618  00000-0  12415-3 0  9997
2 22409  71.1319 319.3675 0114794 178.5814 213.2956 14.61881540761746

Volg SL-16 DEB in realtime met AllMySat

Download on the App Store